Track CELESTIS 16 (OTB) now! 10-day predictions CELESTIS 16 (OTB) is classified as:
1 44341U 19036C 22183.46797600 .00000400 00000-0 44711-4 0 9995 2 44341 23.9974 104.3325 0011781 6.3912 353.6728 14.53072804160600